DMSP 5D-2 F11 DEB

Satellite information

Favourite Embed

Satellite Type and Status

DEBRISIN ORBIT

Key statistics

Satellite DMSP 5D-2 F11 DEB at a glance.

Uptime

12218

Days in orbit

Revolutions

≈ 14.4

Per day

Orbit

SSO

Sun Synchronous Orbit

Inclination

98.7

Latest

Satellite identification and parameters

Extended collection of information and parameters for DMSP 5D-2 F11 DEB.

Object identification

Identified? True

Debris? True

Object name: DMSP 5D-2 F11 DEB

International designator: 1991-082BY

Object number (NORAD): 29077

Object ID (CCSDS): 29077

Country: UNITED STATES OF AMERICA (US)

Current information (Y/N): Y

RCS size: SMALL

Orbital parameters

Period: 99.798 minutes

Inclination: 98.6936 deg

SMA: 7127.009 km

Apoapsis: 792.213 km

Periapsis: 705.535 km

RAAN: 263.3148 deg

Eccentricy: 0.0060809

Argument of periapsis: 305.1733 deg

Mean anomaly: 54.3769 deg

Mean motion: 14.42918492 rev/day

Mean motion (dot): 0.00010876 rev/day2

B* drag term: 0.0031912 1/REarth

Two-line elements (TLE)

Creation date: May 10, 2025, 10:36 p.m.

Reference frame: TEME

Reference center: EARTH

Epoch: May 10, 2025, 3:03 p.m. UTC

TLE line 0: 0 DMSP 5D-2 F11 DEB

TLE line 1: 1 29077U 91082BY 25130.62734621 .00010876 00000-0 31912-2 0 9997

TLE line 2: 2 29077 98.6936 263.3148 0060809 305.1733 54.3769 14.42918492 73660

Live tracking on map

Real-time ground track for satellite DMSP 5D-2 F11 DEB.

In-orbit conjunctions

A list of the most updated potential collisions computed for object DMSP 5D-2 F11 DEB.

Target Orbit TCA Probability of collision Miss distance Type
SL-16 R/B LEO 2024-09-12 03:10:04 0.0002306167 353.0 (m) ROCKET BODY

Associated space launch

Military meteorological satellite

DMSP 5D-2 F11 DEB was lifted into orbit during the mission ‘Atlas E | DMSP-5D2 F11’, on board a Atlas E space rocket.

The launch took place on Nov. 28, 1991, 1:23 p.m. from Space Launch Complex 3W.

For more information about the launch, click the button.

Launch to space Atlas E | DMSP-5D2 F11
Atlas E | DMSP-5D2 F11

Agency: N/A

Status: Launch Successful

Launch date: Nov. 28, 1991, 1:23 p.m. UTC

Rocket: Atlas E

Launch pad: Space Launch Complex 3W

Location: Vandenberg SFB, CA, USA

...

Latest news about this satellite

There are no fresh news available about this satellite. Check back as we update our databases every day.


Newsletter sign-up

Weekly statistics, charts and insights to help you stay on top of the space industry.